FW7093 Weather Reports


time (UTC)temp
F
wind
direction
speed
knots
gust
knots
rain 1hr
in
rain 24hr
in
rain mn
in
humidity
%
barometer
mb
20260504100543 39 0 0.0 0.0 0.00 0.00 0.00 91 1014.6
20260504100103 38 0 0.0 0.0 0.00 0.00 0.00 91 1014.7
20260504081600 40 0 0.0 0.0 0.00 0.00 0.00 86 1015.0
20260504081042 40 0 0.0 0.0 0.00 0.00 0.00 86 1014.9
20260504080547 40 0 0.0 0.0 0.00 0.00 0.00 86 1014.8
20260504050546 41 0 0.0 0.0 0.00 0.00 0.00 79 1015.1
20260504050104 41 0 0.0 0.0 0.00 0.00 0.00 79 1014.9
20260504045546 41 0 0.0 0.0 0.00 0.00 0.00 79 1015.0
20260504045045 41 0 0.0 0.0 0.00 0.00 0.00 78 1015.0
20260504044601 41 0 0.0 0.0 0.00 0.00 0.00 79 1015.0
20260504044047 40 0 0.0 0.0 0.00 0.00 0.00 79 1015.0
20260504043547 40 0 0.0 0.0 0.00 0.00 0.00 80 1014.9
20260504043053 40 0 0.0 0.0 0.00 0.00 0.00 80 1015.0
20260504042546 40 0 0.0 0.0 0.00 0.00 0.00 82 1014.9
20260504042044 40 0 0.0 2.6 0.00 0.00 0.00 82 1014.9
20260504041550 39 0 0.0 2.6 0.00 0.00 0.00 82 1014.9
20260504041049 40 0 0.0 2.6 0.00 0.00 0.00 81 1014.7
20260504040544 40 0 0.0 0.0 0.00 0.00 0.00 81 1014.7
20260504035548 40 0 0.0 0.0 0.00 0.00 0.00 78 1014.6
20260504035044 41 0 0.0 0.0 0.00 0.00 0.00 78 1014.6
20260504034550 41 0 0.0 0.0 0.00 0.00 0.00 78 1014.5
20260504034050 41 0 0.0 0.0 0.00 0.00 0.00 78 1014.5
20260504033543 41 0 0.0 0.0 0.00 0.00 0.00 77 1014.5
20260504033051 41 0 0.0 0.0 0.00 0.00 0.00 77 1014.5
20260504032547 41 0 0.0 0.0 0.00 0.00 0.00 77 1014.4
20260504032044 41 0 0.0 0.0 0.00 0.00 0.00 79 1014.5
20260504031550 41 0 0.0 0.0 0.00 0.00 0.00 79 1014.4
20260504031046 41 0 0.0 0.0 0.00 0.00 0.00 78 1014.4
20260504030545 41 0 0.0 0.0 0.00 0.00 0.00 77 1014.3
20260504030053 41 0 0.0 0.0 0.00 0.00 0.00 78 1014.2
20260504025544 41 0 0.0 0.0 0.00 0.00 0.00 78 1014.2
20260504025044 41 0 0.0 0.0 0.00 0.00 0.00 79 1014.2
20260504024604 41 0 0.0 0.0 0.00 0.00 0.00 79 1014.2
20260504024048 41 0 0.0 0.0 0.00 0.00 0.00 78 1014.3
20260504023543 42 0 0.0 0.0 0.00 0.00 0.00 77 1014.3
20260504023054 42 0 0.0 0.0 0.00 0.00 0.00 77 1014.3
20260504022543 42 0 0.0 0.9 0.00 0.00 0.00 78 1014.3
20260504022044 42 0 0.0 0.9 0.00 0.00 0.00 78 1014.3
20260504021552 42 0 0.0 0.9 0.00 0.00 0.00 77 1014.3
20260504021043 43 0 0.0 0.9 0.00 0.00 0.00 77 1014.2
20260504020548 42 0 0.0 0.0 0.00 0.00 0.00 75 1014.2
20260504020051 42 0 0.0 0.9 0.00 0.00 0.00 75 1014.3
20260504015545 43 0 0.0 0.9 0.00 0.00 0.00 75 1014.2
20260504015047 43 0 0.0 0.0 0.00 0.00 0.00 74 1014.2
20260504014603 43 0 0.0 0.0 0.00 0.00 0.00 74 1014.3
20260504014045 44 0 0.0 0.0 0.00 0.00 0.00 74 1014.3
20260504013543 44 0 0.0 0.0 0.00 0.00 0.00 75 1014.1
20260504013051 44 0 0.0 0.0 0.00 0.00 0.00 73 1014.1
20260504012546 44 0 0.0 0.0 0.00 0.00 0.00 71 1014.1
20260504012043 44 0 0.0 0.0 0.00 0.00 0.00 69 1014.0
20260504011551 45 0 0.0 0.0 0.00 0.00 0.00 68 1014.0
20260504011042 45 0 0.0 0.0 0.00 0.00 0.00 67 1013.9
20260504010541 46 0 0.0 0.0 0.00 0.00 0.00 67 1013.8
20260504010055 46 0 0.0 0.9 0.00 0.00 0.00 66 1013.8
20260504005542 46 0 0.0 0.9 0.00 0.00 0.00 68 1013.8
20260504005044 47 0 0.0 0.0 0.00 0.00 0.00 67 1013.8
20260504004554 47 0 0.0 0.0 0.00 0.00 0.00 64 1013.8
20260504004044 47 0 0.0 0.0 0.00 0.00 0.00 64 1013.7
20260504003542 48 0 0.0 0.0 0.00 0.00 0.00 61 1013.5
20260504003057 48 0 0.0 0.0 0.00 0.00 0.00 61 1013.5
20260504002543 49 0 0.0 0.0 0.00 0.00 0.00 59 1013.4
20260504002041 50 0 0.0 0.0 0.00 0.00 0.00 58 1013.4
20260504001551 50 0 0.0 0.0 0.00 0.00 0.00 55 1013.2
20260504001043 51 0 0.0 0.0 0.00 0.00 0.00 51 1013.2
20260504000543 52 0 0.0 0.0 0.00 0.00 0.00 49 1013.0
20260504000134 52 0 0.0 0.9 0.00 0.00 0.00 48 1012.9
20260503235543 53 0 0.0 1.7 0.00 0.00 0.00 46 1012.8
20260503235043 53 0 0.0 1.7 0.00 0.00 0.00 45 1012.7
20260503234558 54 291 0.0 4.3 0.00 0.00 0.00 44 1012.7
20260503234047 55 0 0.0 4.3 0.00 0.00 0.00 45 1012.8
20260503233541 55 0 0.9 4.3 0.00 0.00 0.00 44 1012.8
20260503233053 56 0 0.9 3.5 0.00 0.00 0.00 41 1012.8
20260503232543 57 0 0.0 4.3 0.00 0.00 0.00 41 1012.8
20260503232043 57 0 0.0 7.0 0.00 0.00 0.00 37 1012.9
20260503231552 58 0 1.7 7.0 0.00 0.00 0.00 37 1012.9
20260503231044 58 257 2.6 8.7 0.00 0.00 0.00 36 1012.9
20260503230544 59 274 2.6 8.7 0.00 0.00 0.00 35 1012.9
20260503230051 59 301 2.6 8.7 0.00 0.00 0.00 36 1012.8
20260503225547 60 291 4.3 8.7 0.00 0.00 0.00 34 1012.8
20260503225043 60 0 2.6 8.7 0.00 0.00 0.00 36 1012.8
20260503224550 60 332 1.7 8.7 0.00 0.00 0.00 35 1012.7
20260503224041 60 287 4.3 8.7 0.00 0.00 0.00 36 1012.7
20260503223542 60 309 3.5 11.3 0.00 0.00 0.00 34 1012.7
20260503223050 60 287 4.3 11.3 0.00 0.00 0.00 36 1012.8
20260503222543 61 342 5.2 11.3 0.00 0.00 0.00 33 1012.8
20260503222048 61 255 2.6 10.4 0.00 0.00 0.00 33 1012.9
20260503221556 61 291 4.3 13.9 0.00 0.00 0.00 32 1012.9
20260503221044 61 310 5.2 13.9 0.00 0.00 0.00 33 1013.0
20260503220544 61 272 6.1 16.5 0.00 0.00 0.00 32 1012.9
20260503220055 61 296 8.7 18.2 0.00 0.00 0.00 31 1013.0
20260503215548 61 318 6.1 18.2 0.00 0.00 0.00 34 1013.0
20260503215047 61 320 7.8 18.2 0.00 0.00 0.00 33 1012.9
20260503214554 61 268 8.7 18.2 0.00 0.00 0.00 37 1013.0
20260503214048 61 3 7.0 14.8 0.00 0.00 0.00 32 1012.8
20260503213547 61 277 7.0 14.8 0.00 0.00 0.00 34 1012.9
20260503213057 61 301 7.8 13.9 0.00 0.00 0.00 35 1012.9
20260503212548 62 282 7.0 13.0 0.00 0.00 0.00 36 1012.9
20260503212048 62 305 5.2 17.4 0.00 0.00 0.00 35 1012.8
20260503211611 62 247 3.5 17.4 0.00 0.00 0.00 37 1012.8
20260503211045 62 313 5.2 14.8 0.00 0.00 0.00 39 1012.8
20260503210549 62 296 5.2 14.8 0.00 0.00 0.00 34 1012.9
20260503210053 62 301 5.2 14.8 0.00 0.00 0.00 32 1012.8
20260503205549 62 301 6.1 13.9 0.00 0.00 0.00 35 1012.9
20260503205047 62 280 5.2 17.4 0.00 0.00 0.00 43 1012.9
20260503204557 62 267 9.6 17.4 0.00 0.00 0.00 37 1012.9
20260503204048 61 306 7.0 13.9 0.00 0.00 0.00 38 1013.0
20260503203546 61 261 7.8 12.2 0.00 0.00 0.00 38 1012.9
20260503203105 60 263 6.1 13.0 0.00 0.00 0.00 38 1013.0
20260503202548 60 254 6.1 13.9 0.00 0.00 0.00 39 1013.0
20260503202050 60 253 7.0 13.9 0.00 0.00 0.00 38 1013.0
20260503201555 62 319 4.3 14.8 0.00 0.00 0.00 38 1013.1
20260503201046 61 307 7.0 14.8 0.00 0.00 0.00 35 1013.1
20260503200542 61 319 5.2 16.5 0.00 0.00 0.00 35 1013.1
20260503200055 59 264 5.2 16.5 0.00 0.00 0.00 35 1013.3
20260503195547 60 269 9.6 16.5 0.00 0.00 0.00 37 1013.2
20260503195047 61 332 8.7 16.5 0.00 0.00 0.00 35 1013.2
20260503194557 61 333 7.8 19.1 0.00 0.00 0.00 34 1013.3
20260503194048 60 280 7.0 19.1 0.00 0.00 0.00 38 1013.4
20260503193547 59 301 10.4 19.1 0.00 0.00 0.00 37 1013.2
20260503193057 61 291 7.0 17.4 0.00 0.00 0.00 40 1013.3
20260503192545 60 291 9.6 17.4 0.00 0.00 0.00 34 1013.3
20260503192047 60 345 5.2 12.2 0.00 0.00 0.00 40 1013.4
20260503191604 61 353 6.1 11.3 0.00 0.00 0.00 37 1013.5
20260503191050 61 296 1.7 13.0 0.00 0.00 0.00 44 1013.5
20260503190545 59 301 4.3 16.5 0.00 0.00 0.00 42 1013.5
20260503190110 58 326 7.0 19.1 0.00 0.00 0.00 38 1013.6
20260503185542 60 259 8.7 19.1 0.00 0.00 0.00 40 1013.6
20260503185045 59 334 7.0 19.1 0.00 0.00 0.00 42 1013.6
20260503184555 60 24 7.0 19.1 0.00 0.00 0.00 41 1013.7
20260503184046 60 326 5.2 13.9 0.00 0.00 0.00 37 1013.7
20260503183546 60 332 7.0 13.9 0.00 0.00 0.00 35 1013.8
20260503183101 60 291 5.2 13.9 0.00 0.00 0.00 36 1013.7
20260503182543 60 311 3.5 13.9 0.00 0.00 0.00 38 1013.9
20260503182047 60 338 4.3 13.9 0.00 0.00 0.00 39 1013.9
20260503181604 59 266 7.8 17.4 0.00 0.00 0.00 43 1014.0
20260503181042 59 313 8.7 17.4 0.00 0.00 0.00 39 1013.9
20260503180543 58 301 8.7 15.6 0.00 0.00 0.00 37 1013.9
20260503180054 58 291 6.1 19.1 0.00 0.00 0.00 44 1014.2
20260503175543 58 301 11.3 19.1 0.00 0.00 0.00 41 1014.3
20260503175042 59 334 5.2 15.6 0.00 0.00 0.00 40 1014.3
20260503174554 57 306 3.5 19.1 0.00 0.00 0.00 41 1014.3
20260503174042 58 309 9.6 19.1 0.00 0.00 0.00 37 1014.3
20260503173542 57 236 3.5 19.1 0.00 0.00 0.00 42 1014.3
20260503173057 58 285 6.1 18.2 0.00 0.00 0.00 44 1014.4
20260503172542 59 326 7.0 17.4 0.00 0.00 0.00 50 1014.4
20260503172042 58 307 8.7 17.4 0.00 0.00 0.00 39 1014.5
20260503171554 57 335 8.7 16.5 0.00 0.00 0.00 41 1014.4
20260503171044 56 319 7.8 17.4 0.00 0.00 0.00 40 1014.5
20260503170544 57 296 7.8 17.4 0.00 0.00 0.00 39 1014.6
20260503150543 53 274 7.0 14.8 0.00 0.00 0.00 49 1015.1
20260503131047 49 2 5.2 14.8 0.00 0.00 0.00 55 1014.9
20260503130545 49 341 6.1 14.8 0.00 0.00 0.00 55 1014.8
20260503110542 45 305 2.6 7.0 0.00 0.00 0.00 69 1013.9